Port Clinton Carl R Keller Fi, OH

2:18 PM EST on February 23, 2018 (GMT -0500)
Keller

Weather History for KPCW - April, 2013

Change the Weather History Date:

Thursday, April 11, 2013

  Actual Average (KTTF) Record (KTTF)
Temperature  
Mean Temperature 36 °F -  
Max Temperature 37 °F 53 °F 84 °F (1977)
Min Temperature 35 °F 33 °F 22 °F (1943)
Degree Days  
Heating Degree Days 29    
Moisture  
Dew Point 35 °F    
Average Humidity 93    
Maximum Humidity 100    
Minimum Humidity 87    
Precipitation  
Precipitation 0.00 in - - ()
Sea Level Pressure  
Sea Level Pressure 29.75 in    
Wind  
Wind Speed 19 mph ()    
Max Wind Speed 28 mph    
Max Gust Speed -    
Visibility 7.6 miles    
Events Rain    
Averages and records for this station are not official NWS values.
T = Trace of Precipitation, MM = Missing Value Source: Averaged Metar Reports

Daily Weather History Graph

Daily Weather History Graph

Search for Another Location

Airport or City:

Trip Planner

Search our weather history database for the weather conditions in past years. The results will help you decide how hot, cold, wet, or windy it might be!

Date:

Astronomy

Apr. 11, 2013 Rise Set
Actual Time 6:57 AM EDT 8:07 PM EDT
Civil Twilight 6:29 AM EDT 8:36 PM EDT
Nautical Twilight 5:55 AM EDT 9:10 PM EDT
Astronomical Twilight 5:19 AM EDT 9:46 PM EDT
Moon 7:27 AM EDT (4/11) 9:42 PM EDT (4/11)
Length of Visible Light 14h 07m
Length of Day
13h 10m
New Moon, 2% of the Moon is Illuminated
Apr 11
New Moon
Apr 18
First Quarter
Apr 25
Full
May 2
Last Quarter
May 9
New

Hourly Weather History & Observations

Time (EDT) Temp. Windchill Dew Point Humidity Pressure Visibility Wind Dir Wind Speed Gust Speed Precip Events Conditions
9:07 AM 37.4 °F 27.5 °F 35.6 °F 93% 29.85 in 5.0 mi East 18.4 mph - N/A Rain Light Rain
9:13 AM 37.4 °F 26.1 °F 35.6 °F 93% 29.84 in 5.0 mi East 24.2 mph - N/A Rain Light Rain
9:34 AM 37.4 °F 27.5 °F 35.6 °F 93% 29.84 in 5.0 mi East 18.4 mph - N/A Rain Light Rain
9:53 AM 37.9 °F 27.3 °F 36.0 °F 93% 29.83 in 7.0 mi East 21.9 mph - N/A Rain Light Rain
10:14 AM 37.4 °F 28.5 °F 35.6 °F 93% 29.87 in 9.0 mi ENE 15.0 mph - N/A Rain Light Rain
10:34 AM 37.4 °F 27.2 °F 35.6 °F 93% 29.85 in 10.0 mi East 19.6 mph - N/A   Overcast
10:53 AM 37.4 °F 26.4 °F 35.6 °F 93% 29.83 in 10.0 mi ENE 23.0 mph - N/A   Overcast
11:14 AM 37.4 °F 26.4 °F 35.6 °F 93% 29.84 in 10.0 mi East 23.0 mph - N/A   Overcast
11:34 AM 37.4 °F 26.1 °F 35.6 °F 93% 29.84 in 10.0 mi East 24.2 mph - N/A   Overcast
11:53 AM 36.9 °F 25.6 °F 34.9 °F 93% 29.82 in 10.0 mi ENE 23.0 mph - N/A   Overcast
12:10 PM 37.4 °F 26.4 °F 35.6 °F 93% 29.83 in 10.0 mi East 23.0 mph - N/A   Overcast
12:34 PM 37.4 °F 25.4 °F 35.6 °F 93% 29.81 in 10.0 mi East 27.6 mph - N/A   Overcast
1:14 PM 37.4 °F 25.9 °F 33.8 °F 87% 29.84 in 10.0 mi East 25.3 mph - N/A   Overcast
1:33 PM 37.4 °F 25.6 °F 35.6 °F 93% 29.83 in 10.0 mi East 26.5 mph - N/A   Overcast
1:53 PM 37.4 °F 26.9 °F 33.8 °F 87% 29.83 in 10.0 mi East 20.7 mph - N/A   Overcast
2:14 PM 37.4 °F 26.1 °F 33.8 °F 87% 29.83 in 10.0 mi East 24.2 mph - N/A   Overcast
2:33 PM 37.4 °F 26.6 °F 33.8 °F 87% 29.82 in 10.0 mi East 21.9 mph - N/A   Overcast
2:54 PM 36.9 °F 26.5 °F 34.0 °F 89% 29.81 in 10.0 mi East 19.6 mph - N/A   Overcast
3:13 PM 37.4 °F 26.4 °F 33.8 °F 87% 29.79 in 10.0 mi East 23.0 mph - N/A   Overcast
3:34 PM 37.4 °F 26.6 °F 33.8 °F 87% 29.81 in 10.0 mi East 21.9 mph - N/A   Overcast
3:53 PM 36.9 °F 25.6 °F 34.0 °F 89% 29.79 in 10.0 mi East 23.0 mph - N/A   Overcast
4:13 PM 37.4 °F 27.2 °F 33.8 °F 87% 29.78 in 10.0 mi East 19.6 mph - N/A   Overcast
4:32 PM 35.6 °F 23.7 °F 33.8 °F 93% 29.76 in 10.0 mi East 24.2 mph - N/A   Overcast
4:54 PM 36.0 °F 25.6 °F 34.9 °F 96% 29.75 in 10.0 mi East 18.4 mph - N/A   Overcast
5:09 PM 35.6 °F 25.2 °F 35.6 °F 100% 29.75 in 6.0 mi East 18.4 mph - N/A Rain Light Rain
5:34 PM 35.6 °F 24.0 °F 35.6 °F 100% 29.74 in 5.0 mi East 23.0 mph - N/A   Overcast
5:46 PM 37.4 °F 27.2 °F 35.6 °F 93% 29.75 in 5.0 mi East 19.6 mph - N/A   Overcast
6:14 PM 37.4 °F 27.8 °F 35.6 °F 93% 29.73 in 6.0 mi East 17.3 mph - N/A   Overcast
6:33 PM 37.4 °F 27.8 °F 35.6 °F 93% 29.72 in 8.0 mi East 17.3 mph - N/A   Overcast
6:54 PM 36.9 °F 26.2 °F 36.0 °F 97% 29.70 in 9.0 mi East 20.7 mph - N/A Rain Light Rain
7:13 PM 37.4 °F 28.2 °F 35.6 °F 93% 29.69 in 8.0 mi East 16.1 mph - N/A Rain Light Rain
7:34 PM 37.4 °F 26.9 °F 35.6 °F 93% 29.68 in 8.0 mi East 20.7 mph - N/A   Overcast
7:54 PM 37.4 °F 26.6 °F 35.6 °F 93% 29.67 in 10.0 mi East 21.9 mph - N/A   Overcast
8:13 PM 37.4 °F 27.5 °F 35.6 °F 93% 29.66 in 10.0 mi East 18.4 mph - N/A   Overcast
8:34 PM 37.4 °F 27.8 °F 35.6 °F 93% 29.67 in 3.0 mi East 17.3 mph - N/A   Overcast
8:54 PM 36.9 °F 26.8 °F 36.0 °F 97% 29.65 in 4.0 mi East 18.4 mph - N/A Rain Light Rain
9:12 PM 37.4 °F 26.9 °F 35.6 °F 93% 29.66 in 5.0 mi East 20.7 mph - N/A Rain Rain
9:34 PM 37.4 °F 26.9 °F 35.6 °F 93% 29.67 in 3.0 mi East 20.7 mph - N/A   Overcast
9:54 PM 37.4 °F 27.2 °F 35.6 °F 93% 29.65 in 5.0 mi East 19.6 mph - N/A   Overcast
10:13 PM 37.4 °F 26.4 °F 35.6 °F 93% 29.65 in 3.0 mi East 23.0 mph - N/A   Overcast
10:34 PM 37.4 °F 26.1 °F 35.6 °F 93% 29.63 in 3.0 mi East 24.2 mph - N/A   Overcast
10:52 PM 37.4 °F 27.2 °F 35.6 °F 93% 29.64 in 5.0 mi East 19.6 mph - N/A   Overcast
11:14 PM 37.4 °F 26.6 °F 35.6 °F 93% 29.62 in 4.0 mi East 21.9 mph - N/A   Overcast
11:29 PM 37.4 °F 27.8 °F 35.6 °F 93% 29.62 in 5.0 mi East 17.3 mph - N/A   Overcast
11:54 PM 36.9 °F 27.5 °F 36.0 °F 97% 29.58 in 7.0 mi East 16.1 mph - N/A   Overcast